Showing default

DIAPASON (D1-A), 2016

Orbit data source: Space-Track

DIAPASON (D1-A), 2016 is a payload satellite owned by CNES (FR) in LEO that was launched on Thu, 17 Feb 1966 UTC via a DIAMANT A launch vehicle from the Hamma Guira Space Track Range (HGSTR). Payload-class satellites include a variety of spacecraft equipped with specific instruments for various scientific and technological missions. These include communications satellites like Starlink; space stations such as the ISS; scientific satellites like the Hubble; Earth observation satellites from companies like Planet Labs, Umbra, and HawkEye 360; GPS; miniature CubeSats for education and research; and military/defense satellites.

Loading next visibility...
Identifier
2016, 1966-013A
Orbit
LEO
Country
Flag of FRFR
Related business
Manufacturer
CNES
Mission
Spacecraft
Bus & Motor
D-1, Unknown motor
Mass
19 kg wet, 19 kg dry
Launch date (UTC)
1966-02-17 (60 years ago)
Launch vehicle
DIAMANT A
Launch site
Hamma Guira Space Track Range (HGSTR)
Object type
Payload
Rocket body
Debris
Shape & HBR
Unknown
Radar Cross Section
Large (>1 m²)

Expand to show TLE details & history
Last TLE update: 10 hours ago

TLE from 10 hours ago
0 DIAPASON (D1-A)
1  2016U 66013A   25304.87219066  .00003104  00000-0  89478-3 0  9995
2  2016  34.0871 215.7017 1159622  54.7863 315.5889 12.65915753711491
Epoch: 2025-10-31T20:55Z
TLE epoch observation values (Epoch: 2025-10-31T20:55:57.273Z)
Latitude
0.00002°
Longitude
-138.6973°
Altitude
811.469 km
Speed
7.724 km/s
True Right ascension
14h 22m 48s
True Declination
0° 00' 00"
Sunlit
Object was in daylight at epoch
Visualization orbit readout
Latitude
Unknown
Longitude
Unknown
Altitude
Unknown
Speed
Unknown
Apparent Right ascension
Unknown
Apparent Declination
Unknown
Sunlit
N/A
Visualization observer readout
Local Sidereal Time
03:05:27
Azimuth
Unknown
Elevation
Unknown
Doppler factor
Unknown
Orbital elements
Apogee altitude
2,303.849 km
Perigee altitude
499.519 km
Semi-major axis
7,779.821 km
Eccentricity
0.11596
Inclination
34.0871°
RAAN
215.7017°
Arg. of periapsis
54.7863°
True anomaly
305.27788°
Mean anomaly
315.5889°
Eccentric anomaly
310.53964°
Mean motion
3.16292 °/min
Orbital period
113.82 mins
BSTAR
0.00089478
Loading maneuver chart data...
Computing Atmospheric mass density...

Documentation

Showing up to 5 results
|